UAE185 OMDB-LEBL

Flight info

Callsign UAE185
Flight time 7h 55m
Altitude 32000
Route ANVIX R401 GIDIS G783 UKRAG L710 DEBAV G652 TOKRA DCT ALROK DCT BOSOB DCT ITRUX Y511 ALKAV/N0500F340 Y511 PMA Z712 WEJ L677 CVO L617 NABSI M872 METRU DCT ARLOS DCT SUBOK/N0482F360 DCT ENEPA DCT BEKIV DCT PAL DCT KAPIL DCT ADAMI DCT ALG DCT GINOX DCT KIFMI DCT ELVOP DCT MUREN/N0485F350 M601 VERSO
Aircraft B77W/H-SDE2E3GHIJ3J5M1P2RWXYZ/LB1D1

Departure

Time 2026-05-03 20:15
Airport Dubai International Airport (OMDB)

Arrival

Time 2026-05-04 04:11
Airport Josep Tarradellas Barcelona-El Prat Airport (LEBL)
Time Latitude Longitude Altitude Speed Heading
2026-05-03 20:15 25.23775 55.17205 5486 ft 252 kts 211°
2026-05-03 20:15 25.22035 55.16712 5850 ft 263 kts 182°
2026-05-03 20:15 25.20216 55.16840 6196 ft 269 kts 176°
2026-05-03 20:15 25.18398 55.17564 6301 ft 292 kts 142°
2026-05-03 20:16 25.17137 55.19343 6590 ft 301 kts 114°
2026-05-03 20:16 25.16282 55.21478 6969 ft 308 kts 115°
2026-05-03 20:16 25.15342 55.23612 7543 ft 310 kts 117°
2026-05-03 20:16 25.14349 55.25729 8146 ft 312 kts 117°
2026-05-03 20:17 25.13332 55.27859 8708 ft 316 kts 117°
2026-05-03 20:17 25.12296 55.30017 9240 ft 321 kts 117°
2026-05-03 20:17 25.11244 55.32202 9820 ft 322 kts 117°
2026-05-03 20:17 25.10218 55.34409 10340 ft 326 kts 114°
2026-05-03 20:18 25.09258 55.36749 10529 ft 345 kts 112°
2026-05-03 20:18 25.08260 55.39232 10688 ft 364 kts 113°
2026-05-03 20:18 25.07198 55.41849 10843 ft 384 kts 112°
2026-05-03 20:18 25.06116 55.44618 11077 ft 400 kts 111°
2026-05-03 20:19 25.05027 55.47478 11570 ft 408 kts 111°
2026-05-03 20:19 25.03938 55.50333 12193 ft 412 kts 112°
2026-05-03 20:19 25.02806 55.53275 12962 ft 413 kts 112°
2026-05-03 20:19 25.01662 55.56173 13760 ft 412 kts 115°
2026-05-03 20:20 25.00272 55.58954 14356 ft 417 kts 121°
2026-05-03 20:20 24.98710 55.61679 14850 ft 423 kts 122°
2026-05-03 20:20 24.97123 55.64440 15366 ft 428 kts 121°
2026-05-03 20:20 24.95566 55.67258 15905 ft 433 kts 120°
2026-05-03 20:21 24.94011 55.70117 16440 ft 437 kts 121°
2026-05-03 20:21 24.92309 55.72911 16974 ft 442 kts 125°
2026-05-03 20:21 24.90459 55.75642 17483 ft 446 kts 127°
2026-05-03 20:21 24.88568 55.78376 17990 ft 451 kts 127°
2026-05-03 20:22 24.86685 55.81152 18447 ft 455 kts 126°
2026-05-03 20:22 24.84803 55.83977 18926 ft 458 kts 126°
2026-05-03 20:22 24.82917 55.86816 19403 ft 461 kts 126°
2026-05-03 20:22 24.80980 55.89644 19814 ft 461 kts 130°
2026-05-03 20:23 24.78557 55.91971 20035 ft 468 kts 152°
2026-05-03 20:23 24.75563 55.93337 20443 ft 467 kts 168°
2026-05-03 20:23 24.72365 55.93818 20925 ft 463 kts 183°
2026-05-03 20:23 24.69152 55.93656 21426 ft 463 kts 186°
2026-05-03 20:24 24.65921 55.93475 21838 ft 468 kts 185°
2026-05-03 20:24 24.62689 55.93163 22190 ft 466 kts 195°
2026-05-03 20:24 24.59612 55.92099 22565 ft 463 kts 208°
2026-05-03 20:24 24.56822 55.90368 23038 ft 459 kts 220°
2026-05-03 20:25 24.54437 55.88146 23463 ft 455 kts 226°
2026-05-03 20:25 24.52082 55.85788 23779 ft 459 kts 226°
2026-05-03 20:25 24.49703 55.83437 24145 ft 462 kts 226°
2026-05-03 20:25 24.47300 55.81097 24533 ft 463 kts 225°
2026-05-03 20:26 24.44871 55.78756 24928 ft 465 kts 225°
2026-05-03 20:26 24.42435 55.76420 25274 ft 467 kts 225°
2026-05-03 20:26 24.39985 55.74073 25613 ft 469 kts 225°
2026-05-03 20:26 24.37516 55.71708 25955 ft 471 kts 225°
2026-05-03 20:27 24.35041 55.69328 26296 ft 473 kts 225°
2026-05-03 20:27 24.32569 55.66939 26641 ft 475 kts 226°
2026-05-03 20:27 24.30085 55.64542 26980 ft 477 kts 225°
2026-05-03 20:27 24.27431 55.62328 27292 ft 484 kts 217°
2026-05-03 20:28 24.24462 55.60518 27565 ft 492 kts 210°
2026-05-03 20:28 24.21280 55.59083 27839 ft 499 kts 202°
2026-05-03 20:28 24.17917 55.58061 28145 ft 503 kts 199°
2026-05-03 20:28 24.14512 55.57121 28424 ft 505 kts 199°
2026-05-03 20:29 24.11104 55.56169 28692 ft 507 kts 199°
2026-05-03 20:29 24.07686 55.55184 28919 ft 509 kts 199°
2026-05-03 20:29 24.04262 55.54172 29164 ft 511 kts 200°
2026-05-03 20:29 24.00825 55.53151 29395 ft 512 kts 200°
2026-05-03 20:30 23.97380 55.52125 29615 ft 514 kts 200°
2026-05-03 20:30 23.93931 55.51097 29898 ft 514 kts 200°
2026-05-03 20:30 23.90486 55.50073 30195 ft 512 kts 200°
2026-05-03 20:30 23.87096 55.49065 30529 ft 510 kts 200°
2026-05-03 20:31 23.83684 55.48052 30873 ft 507 kts 200°
2026-05-03 20:31 23.80278 55.47038 31204 ft 505 kts 200°
2026-05-03 20:31 23.76898 55.46030 31528 ft 503 kts 200°
2026-05-03 20:31 23.73528 55.45025 31771 ft 503 kts 200°
2026-05-03 20:32 23.70139 55.44013 31795 ft 505 kts 200°
2026-05-03 20:32 23.63385 55.42003 31840 ft 502 kts 200°
2026-05-03 20:33 23.56651 55.40013 31832 ft 501 kts 198°
2026-05-03 20:33 23.49654 55.39373 31838 ft 512 kts 180°
2026-05-03 20:34 23.42615 55.40918 31830 ft 520 kts 167°
2026-05-03 20:34 23.35668 55.43182 31836 ft 522 kts 167°
2026-05-03 20:35 23.28702 55.45437 31830 ft 523 kts 167°
2026-05-03 20:35 23.21759 55.47638 31833 ft 523 kts 167°
2026-05-03 20:36 23.14759 55.49844 31825 ft 523 kts 167°
2026-05-03 20:36 23.07767 55.52049 31821 ft 523 kts 167°
2026-05-03 20:37 23.00769 55.54243 31818 ft 523 kts 168°
2026-05-03 20:37 22.93755 55.56383 31817 ft 523 kts 168°
2026-05-03 20:38 22.86755 55.58508 31823 ft 522 kts 168°
2026-05-03 20:38 22.79762 55.60640 31821 ft 522 kts 168°
2026-05-03 20:39 22.72771 55.62772 31815 ft 522 kts 168°
2026-05-03 20:39 22.66963 55.64541 31806 ft 522 kts 167°
2026-05-03 20:40 22.59972 55.66670 31814 ft 521 kts 167°
2026-05-03 20:40 22.52995 55.68809 31810 ft 521 kts 167°
2026-05-03 20:41 22.46015 55.70950 31809 ft 521 kts 167°
2026-05-03 20:41 22.39045 55.73084 31804 ft 521 kts 167°
2026-05-03 20:42 22.32026 55.74434 31801 ft 506 kts 189°
2026-05-03 20:42 22.28625 55.73644 31797 ft 497 kts 205°
2026-05-03 20:42 22.25598 55.71927 31813 ft 490 kts 218°
2026-05-03 20:43 22.20737 55.66971 31785 ft 482 kts 240°
2026-05-03 20:43 22.17758 55.60545 31796 ft 479 kts 250°
2026-05-03 20:44 22.15751 55.53701 31803 ft 479 kts 259°
2026-05-03 20:44 22.14782 55.46615 31798 ft 477 kts 266°
2026-05-03 20:45 22.14245 55.39482 31791 ft 477 kts 267°
2026-05-03 20:45 22.13710 55.32358 31788 ft 476 kts 266°
2026-05-03 20:46 22.13143 55.25267 31782 ft 475 kts 266°
2026-05-03 20:46 22.12555 55.18175 31786 ft 474 kts 266°
2026-05-03 20:47 22.11961 55.11101 31783 ft 474 kts 266°
2026-05-03 20:47 22.11364 55.04022 31776 ft 474 kts 266°
2026-05-03 20:48 22.10766 54.96944 31777 ft 474 kts 266°
2026-05-03 20:48 22.10164 54.89859 31782 ft 475 kts 266°
2026-05-03 20:49 22.09559 54.82767 31777 ft 476 kts 266°
2026-05-03 20:49 22.08953 54.75704 31787 ft 476 kts 266°
2026-05-03 20:50 22.08340 54.68597 31775 ft 477 kts 265°
2026-05-03 20:50 22.07723 54.61480 31778 ft 477 kts 265°
2026-05-03 20:51 22.07102 54.54361 31787 ft 477 kts 265°
2026-05-03 20:51 22.06478 54.47227 31777 ft 477 kts 265°
2026-05-03 20:52 22.05851 54.40096 31781 ft 477 kts 265°
2026-05-03 20:52 22.05220 54.32969 31781 ft 478 kts 265°
2026-05-03 20:53 22.04590 54.25882 31784 ft 478 kts 265°
2026-05-03 20:53 22.03949 54.18708 31786 ft 478 kts 265°
2026-05-03 20:54 22.03312 54.11610 31786 ft 479 kts 265°
2026-05-03 20:54 22.02345 54.00895 31790 ft 479 kts 265°
2026-05-03 20:55 22.01696 53.93755 31791 ft 479 kts 265°
2026-05-03 20:55 22.01044 53.86626 31788 ft 478 kts 265°
2026-05-03 20:56 22.00390 53.79501 31787 ft 477 kts 265°
2026-05-03 20:56 21.99735 53.72392 31783 ft 477 kts 265°
2026-05-03 20:57 21.99077 53.65285 31790 ft 476 kts 265°
2026-05-03 20:57 21.98416 53.58184 31789 ft 476 kts 265°
2026-05-03 20:58 21.97752 53.51081 31789 ft 476 kts 265°
2026-05-03 20:58 21.97085 53.43978 31790 ft 477 kts 265°
2026-05-03 20:59 21.96414 53.36868 31790 ft 477 kts 264°
2026-05-03 20:59 21.95739 53.29755 31789 ft 477 kts 264°
2026-05-03 21:00 21.95176 53.23842 31788 ft 477 kts 264°
2026-05-03 21:00 21.94384 53.15564 31793 ft 478 kts 264°
2026-05-03 21:01 21.93699 53.08444 31790 ft 478 kts 264°
2026-05-03 21:01 21.93012 53.01326 31788 ft 478 kts 264°
2026-05-03 21:02 21.92320 52.94191 31789 ft 478 kts 264°
2026-05-03 21:02 21.91626 52.87068 31789 ft 478 kts 264°
2026-05-03 21:03 21.90929 52.79940 31789 ft 478 kts 264°
2026-05-03 21:03 21.90370 52.72851 31783 ft 478 kts 269°
2026-05-03 21:04 21.90823 52.65711 31791 ft 479 kts 279°
2026-05-03 21:04 21.92114 52.58677 31793 ft 479 kts 281°
2026-05-03 21:05 21.93449 52.51657 31789 ft 478 kts 281°
2026-05-03 21:05 21.94329 52.46956 31786 ft 478 kts 280°
2026-05-03 21:06 21.96052 52.37593 31792 ft 477 kts 280°
2026-05-03 21:06 21.97325 52.30613 31793 ft 477 kts 280°
2026-05-03 21:07 21.98601 52.23599 31796 ft 477 kts 280°
2026-05-03 21:07 21.99875 52.16581 31797 ft 477 kts 280°
2026-05-03 21:08 22.01148 52.09556 31800 ft 478 kts 280°
2026-05-03 21:08 22.02419 52.02525 31797 ft 478 kts 280°
2026-05-03 21:09 22.03688 51.95489 31807 ft 478 kts 280°
2026-05-03 21:09 22.04955 51.88443 31799 ft 478 kts 280°
2026-05-03 21:10 22.06218 51.81403 31803 ft 478 kts 280°
2026-05-03 21:10 22.07469 51.74411 31803 ft 478 kts 280°
2026-05-03 21:11 22.08725 51.67373 31804 ft 478 kts 280°
2026-05-03 21:11 22.09979 51.60327 31808 ft 478 kts 279°
2026-05-03 21:12 22.11229 51.53289 31805 ft 478 kts 279°
2026-05-03 21:12 22.12477 51.46237 31807 ft 479 kts 279°
2026-05-03 21:13 22.13723 51.39183 31813 ft 479 kts 279°
2026-05-03 21:13 22.14968 51.32119 31804 ft 478 kts 279°
2026-05-03 21:14 22.16206 51.25072 31807 ft 478 kts 279°
2026-05-03 21:14 22.17440 51.18031 31808 ft 478 kts 279°
2026-05-03 21:15 22.18670 51.10992 31809 ft 478 kts 279°
2026-05-03 21:15 22.19898 51.03945 31811 ft 478 kts 279°
2026-05-03 21:16 22.21123 50.96898 31809 ft 478 kts 279°
2026-05-03 21:16 22.22345 50.89851 31807 ft 478 kts 279°
2026-05-03 21:17 22.23359 50.83992 31815 ft 477 kts 279°
2026-05-03 21:17 22.24779 50.75759 31806 ft 477 kts 279°
2026-05-03 21:18 22.25989 50.68724 31808 ft 476 kts 279°
2026-05-03 21:18 22.27186 50.61749 31806 ft 476 kts 279°
2026-05-03 21:19 22.28388 50.54724 31812 ft 476 kts 279°
2026-05-03 21:19 22.29586 50.47699 31811 ft 476 kts 279°
2026-05-03 21:20 22.30784 50.40663 31810 ft 477 kts 279°
2026-05-03 21:20 22.31980 50.33617 31812 ft 477 kts 279°
2026-05-03 21:21 22.33173 50.26566 31821 ft 477 kts 278°
2026-05-03 21:21 22.34363 50.19514 31812 ft 477 kts 278°
2026-05-03 21:22 22.35548 50.12479 31813 ft 476 kts 278°
2026-05-03 21:22 22.36731 50.05433 31815 ft 476 kts 278°
2026-05-03 21:23 22.37901 49.98442 31812 ft 476 kts 278°
2026-05-03 21:23 22.39076 49.91405 31804 ft 476 kts 278°
2026-05-03 21:24 22.40249 49.84360 31819 ft 476 kts 278°
2026-05-03 21:24 22.41419 49.77307 31811 ft 477 kts 278°
2026-05-03 21:25 22.42587 49.70255 31811 ft 477 kts 278°
2026-05-03 21:25 22.43755 49.63182 31816 ft 478 kts 278°
2026-05-03 21:26 22.44921 49.56100 31817 ft 479 kts 278°
2026-05-03 21:26 22.46085 49.49009 31813 ft 479 kts 278°
2026-05-03 21:27 22.47248 49.41906 31820 ft 480 kts 278°
2026-05-03 21:27 22.48214 49.35992 31820 ft 480 kts 278°
2026-05-03 21:28 22.49372 49.28877 31815 ft 481 kts 278°
2026-05-03 21:28 22.50529 49.21756 31833 ft 481 kts 278°
2026-05-03 21:29 22.51681 49.14641 31821 ft 480 kts 278°
2026-05-03 21:29 22.53015 49.06380 31817 ft 479 kts 278°
2026-05-03 21:30 22.53971 49.00437 31826 ft 479 kts 278°
2026-05-03 21:30 22.55110 48.93341 31828 ft 479 kts 278°
2026-05-03 21:31 22.56246 48.86247 31829 ft 479 kts 278°
2026-05-03 21:31 22.57379 48.79144 31832 ft 479 kts 278°
2026-05-03 21:32 22.58504 48.72078 31839 ft 479 kts 278°
2026-05-03 21:32 22.59632 48.64970 31829 ft 479 kts 278°
2026-05-03 21:33 22.60754 48.57878 31831 ft 478 kts 278°
2026-05-03 21:33 22.61871 48.50798 31831 ft 477 kts 278°
2026-05-03 21:34 22.62983 48.43724 31836 ft 476 kts 278°
2026-05-03 21:34 22.64092 48.36654 31838 ft 476 kts 277°
2026-05-03 21:35 22.65198 48.29580 31838 ft 477 kts 277°
2026-05-03 21:35 22.66294 48.22544 31837 ft 477 kts 277°
2026-05-03 21:36 22.67397 48.15450 31846 ft 478 kts 277°
2026-05-03 21:36 22.68497 48.08352 31842 ft 478 kts 277°
2026-05-03 21:37 22.69462 48.01244 31840 ft 476 kts 274°
2026-05-03 21:37 22.70045 47.94109 31848 ft 476 kts 273°
2026-05-03 21:38 22.70613 47.86967 31850 ft 476 kts 273°
2026-05-03 21:38 22.71195 47.79817 31849 ft 476 kts 273°
2026-05-03 21:39 22.71783 47.72667 31858 ft 477 kts 273°
2026-05-03 21:39 22.72370 47.65516 31861 ft 477 kts 273°
2026-05-03 21:40 22.72949 47.58403 31869 ft 477 kts 273°
2026-05-03 21:40 22.73529 47.51237 31869 ft 476 kts 273°
2026-05-03 21:41 22.74104 47.44094 31872 ft 475 kts 273°
2026-05-03 21:41 22.74674 47.36967 31878 ft 475 kts 273°
2026-05-03 21:42 22.75242 47.29836 31893 ft 475 kts 273°
2026-05-03 21:42 22.75803 47.22746 31892 ft 475 kts 273°
2026-05-03 21:43 22.76366 47.15610 31897 ft 476 kts 273°
2026-05-03 21:43 22.76937 47.08467 31897 ft 476 kts 273°
2026-05-03 21:44 22.77509 47.01320 31914 ft 476 kts 273°
2026-05-03 21:44 22.78076 46.94175 31907 ft 476 kts 273°
2026-05-03 21:45 22.78639 46.87030 31912 ft 476 kts 273°
2026-05-03 21:45 22.79198 46.79891 31920 ft 475 kts 273°
2026-05-03 21:46 22.79754 46.72748 31924 ft 475 kts 273°
2026-05-03 21:46 22.80307 46.65607 31923 ft 475 kts 273°
2026-05-03 21:47 22.80852 46.58516 31930 ft 475 kts 272°
2026-05-03 21:47 22.81398 46.51382 31932 ft 475 kts 272°
2026-05-03 21:48 22.81941 46.44248 31942 ft 475 kts 272°
2026-05-03 21:48 22.82480 46.37114 31937 ft 475 kts 272°
2026-05-03 21:49 22.83007 46.29987 31927 ft 474 kts 272°
2026-05-03 21:49 22.83530 46.22862 31931 ft 474 kts 272°
2026-05-03 21:50 22.84050 46.15744 31921 ft 474 kts 272°
2026-05-03 21:50 22.84568 46.08622 31928 ft 474 kts 272°
2026-05-03 21:51 22.85083 46.01485 31927 ft 475 kts 272°
2026-05-03 21:51 22.85596 45.94346 31929 ft 475 kts 272°
2026-05-03 21:52 22.86106 45.87202 31931 ft 474 kts 272°
2026-05-03 21:52 22.86610 45.80081 31917 ft 473 kts 272°
2026-05-03 21:53 22.87111 45.72971 31920 ft 472 kts 272°
2026-05-03 21:53 22.87605 45.65926 31926 ft 471 kts 272°
2026-05-03 21:54 22.88097 45.58845 31929 ft 471 kts 272°
2026-05-03 21:54 22.88586 45.51768 31930 ft 471 kts 272°
2026-05-03 21:55 22.89072 45.44689 31932 ft 471 kts 272°
2026-05-03 21:55 22.89556 45.37586 31936 ft 472 kts 272°
2026-05-03 21:56 22.90037 45.30483 31940 ft 473 kts 272°
2026-05-03 21:56 22.90516 45.23362 31943 ft 473 kts 272°
2026-05-03 21:57 22.90993 45.16238 31939 ft 474 kts 272°
2026-05-03 21:57 22.91467 45.09109 31942 ft 474 kts 272°
2026-05-03 21:58 22.91938 45.01972 31943 ft 474 kts 272°
2026-05-03 21:58 22.92407 44.94832 31947 ft 475 kts 272°
2026-05-03 21:59 22.92871 44.87733 31943 ft 475 kts 272°
2026-05-03 21:59 22.93334 44.80584 31947 ft 475 kts 272°
2026-05-03 22:00 22.93796 44.73427 31951 ft 475 kts 272°
2026-05-03 22:00 22.94626 44.66310 31959 ft 477 kts 279°
2026-05-03 22:01 22.96510 44.59386 31963 ft 479 kts 286°
2026-05-03 22:01 22.98671 44.52554 31957 ft 478 kts 286°
2026-05-03 22:02 23.00805 44.45729 31958 ft 477 kts 286°
2026-05-03 22:02 23.02912 44.38906 31965 ft 476 kts 285°
2026-05-03 22:03 23.05008 44.32086 31951 ft 475 kts 285°
2026-05-03 22:03 23.07081 44.25330 31950 ft 475 kts 285°
2026-05-03 22:04 23.09164 44.18532 31973 ft 474 kts 285°
2026-05-03 22:04 23.11242 44.11740 31963 ft 473 kts 285°
2026-05-03 22:05 23.13317 44.04947 31963 ft 474 kts 285°
2026-05-03 22:05 23.15385 43.98163 31996 ft 473 kts 285°
2026-05-03 22:06 23.17451 43.91380 31992 ft 472 kts 285°
2026-05-03 22:06 23.19510 43.84604 31982 ft 472 kts 285°
2026-05-03 22:07 23.21565 43.77830 31995 ft 472 kts 285°
2026-05-03 22:07 23.23616 43.71056 31997 ft 472 kts 285°
2026-05-03 22:08 23.25664 43.64282 32005 ft 471 kts 285°
2026-05-03 22:08 23.27708 43.57510 32018 ft 471 kts 285°
2026-05-03 22:09 23.29744 43.50743 32018 ft 471 kts 285°
2026-05-03 22:10 23.32789 43.40596 32031 ft 470 kts 284°
2026-05-03 22:10 23.34813 43.33834 32034 ft 470 kts 284°
2026-05-03 22:11 23.36836 43.27066 32033 ft 470 kts 284°
2026-05-03 22:11 23.38854 43.20299 32051 ft 470 kts 284°
2026-05-03 22:12 23.40869 43.13536 32048 ft 470 kts 284°
2026-05-03 22:12 23.42861 43.06809 32052 ft 470 kts 284°
2026-05-03 22:13 23.44860 43.00032 32057 ft 470 kts 284°
2026-05-03 22:13 23.46857 42.93254 32053 ft 470 kts 284°
2026-05-03 22:14 23.48851 42.86475 32051 ft 470 kts 284°
2026-05-03 22:14 23.50840 42.79701 32052 ft 469 kts 284°
2026-05-03 22:15 23.52828 42.72928 32051 ft 469 kts 284°
2026-05-03 22:15 23.54829 42.66156 32051 ft 469 kts 284°
2026-05-03 22:16 23.56828 42.59385 32054 ft 469 kts 284°
2026-05-03 22:16 23.58821 42.52618 32048 ft 469 kts 284°
2026-05-03 22:17 23.60809 42.45849 32052 ft 468 kts 284°
2026-05-03 22:17 23.62792 42.39085 32061 ft 468 kts 284°
2026-05-03 22:18 23.64768 42.32335 32052 ft 467 kts 284°
2026-05-03 22:18 23.66404 42.26729 32046 ft 466 kts 284°
2026-05-03 22:19 23.68345 42.19997 32048 ft 465 kts 284°
2026-05-03 22:19 23.70276 42.13275 32055 ft 464 kts 283°
2026-05-03 22:20 23.72206 42.06555 32046 ft 463 kts 283°
2026-05-03 22:20 23.74131 41.99846 32056 ft 463 kts 283°
2026-05-03 22:21 23.76068 41.93147 32057 ft 462 kts 283°
2026-05-03 22:21 23.78017 41.86458 32050 ft 462 kts 283°
2026-05-03 22:22 23.79957 41.79773 32056 ft 461 kts 283°
2026-05-03 22:22 23.81888 41.73085 32058 ft 461 kts 283°
2026-05-03 22:23 23.83796 41.66436 32048 ft 461 kts 283°
2026-05-03 22:23 23.85712 41.59752 32050 ft 461 kts 283°
2026-05-03 22:24 23.87625 41.53072 32057 ft 461 kts 283°
2026-05-03 22:24 23.89530 41.46391 32040 ft 460 kts 283°
2026-05-03 22:25 23.91433 41.39707 32054 ft 460 kts 283°
2026-05-03 22:25 23.93332 41.33027 32048 ft 460 kts 283°
2026-05-03 22:26 23.95227 41.26348 32038 ft 460 kts 283°
2026-05-03 22:26 23.97120 41.19659 32049 ft 460 kts 283°
2026-05-03 22:27 23.99010 41.12969 32058 ft 460 kts 283°
2026-05-03 22:27 24.00895 41.06285 32039 ft 460 kts 283°
2026-05-03 22:28 24.02778 40.99596 32035 ft 460 kts 283°
2026-05-03 22:28 24.04659 40.92902 32033 ft 460 kts 283°
2026-05-03 22:29 24.06523 40.86248 32047 ft 459 kts 282°
2026-05-03 22:29 24.08392 40.79567 32036 ft 458 kts 282°
2026-05-03 22:30 24.10250 40.72907 32032 ft 457 kts 282°
2026-05-03 22:30 24.12106 40.66244 32036 ft 457 kts 282°
2026-05-03 22:31 24.13957 40.59587 32029 ft 456 kts 282°
2026-05-03 22:31 24.15843 40.52946 32029 ft 458 kts 285°
2026-05-03 22:32 24.18500 40.46554 32050 ft 464 kts 292°
2026-05-03 22:32 24.21518 40.40356 32034 ft 464 kts 292°
2026-05-03 22:33 24.24527 40.34105 32025 ft 463 kts 292°
2026-05-03 22:33 24.27516 40.27848 32025 ft 463 kts 292°
2026-05-03 22:34 24.30498 40.21590 32035 ft 463 kts 292°
2026-05-03 22:34 24.33472 40.15340 32027 ft 462 kts 292°
2026-05-03 22:35 24.36443 40.09092 32024 ft 462 kts 292°
2026-05-03 22:35 24.39412 40.02839 32031 ft 462 kts 292°
2026-05-03 22:36 24.42372 39.96595 32015 ft 461 kts 291°
2026-05-03 22:36 24.45328 39.90352 32005 ft 461 kts 291°
2026-05-03 22:37 24.48278 39.84113 32001 ft 460 kts 291°
2026-05-03 22:37 24.51222 39.77879 32004 ft 460 kts 291°
2026-05-03 22:38 24.54639 39.71904 31997 ft 469 kts 303°
2026-05-03 22:38 24.59227 39.66776 31991 ft 480 kts 314°
2026-05-03 22:39 24.64654 39.62425 32024 ft 483 kts 317°
2026-05-03 22:39 24.70136 39.58152 32024 ft 482 kts 317°
2026-05-03 22:40 24.75581 39.53849 32022 ft 482 kts 316°
2026-05-03 22:40 24.81010 39.49511 32016 ft 483 kts 316°
2026-05-03 22:41 24.86441 39.45158 32038 ft 483 kts 316°
2026-05-03 22:41 24.91880 39.40794 32015 ft 483 kts 316°
2026-05-03 22:42 24.97317 39.36431 32006 ft 483 kts 316°
2026-05-03 22:42 25.02749 39.32069 32020 ft 483 kts 316°
2026-05-03 22:43 25.08174 39.27707 32011 ft 483 kts 316°
2026-05-03 22:43 25.13593 39.23343 32006 ft 482 kts 316°
2026-05-03 22:44 25.18960 39.18937 32021 ft 477 kts 311°
2026-05-03 22:44 25.23526 39.13787 32014 ft 465 kts 302°
2026-05-03 22:45 25.27216 39.08003 32002 ft 458 kts 295°
2026-05-03 22:45 25.30625 39.02102 31983 ft 459 kts 295°
2026-05-03 22:46 25.34072 38.96151 31992 ft 459 kts 295°
2026-05-03 22:46 25.37533 38.90210 31980 ft 460 kts 296°
2026-05-03 22:47 25.41008 38.84254 31974 ft 461 kts 295°
2026-05-03 22:47 25.44481 38.78298 31967 ft 460 kts 295°
2026-05-03 22:48 25.47950 38.72340 31962 ft 460 kts 295°
2026-05-03 22:48 25.51413 38.66382 31962 ft 460 kts 295°
2026-05-03 22:49 25.54868 38.60430 31940 ft 459 kts 295°
2026-05-03 22:49 25.58319 38.54479 31940 ft 459 kts 295°
2026-05-03 22:50 25.61766 38.48527 31946 ft 459 kts 295°
2026-05-03 22:50 25.65186 38.42613 31937 ft 458 kts 295°
2026-05-03 22:51 25.68624 38.36660 31960 ft 458 kts 295°
2026-05-03 22:51 25.72059 38.30703 31945 ft 458 kts 295°
2026-05-03 22:52 25.75490 38.24747 31936 ft 458 kts 295°
2026-05-03 22:52 25.78919 38.18787 31934 ft 458 kts 295°
2026-05-03 22:53 25.82346 38.12825 31933 ft 458 kts 295°
2026-05-03 22:53 25.85775 38.06852 31922 ft 458 kts 295°
2026-05-03 22:54 25.89200 38.00876 31933 ft 458 kts 295°
2026-05-03 22:54 25.92615 37.94908 31967 ft 458 kts 295°
2026-05-03 22:55 25.96035 37.88929 31963 ft 458 kts 295°
2026-05-03 22:55 25.99144 37.82821 31954 ft 449 kts 286°
2026-05-03 22:56 26.01108 37.76334 31971 ft 442 kts 278°
2026-05-03 22:56 26.02122 37.69625 31981 ft 439 kts 273°
2026-05-03 22:57 26.02995 37.62895 31970 ft 439 kts 274°
2026-05-03 22:57 26.03900 37.56181 31968 ft 439 kts 274°
2026-05-03 22:58 26.04810 37.49496 31949 ft 439 kts 274°
2026-05-03 22:58 26.05708 37.42778 31958 ft 440 kts 274°
2026-05-03 22:59 26.06599 37.36040 31943 ft 440 kts 274°
2026-05-03 22:59 26.07491 37.29306 31922 ft 440 kts 274°
2026-05-03 23:00 26.08379 37.22578 31940 ft 439 kts 274°
2026-05-03 23:00 26.09262 37.15864 31932 ft 438 kts 274°
2026-05-03 23:01 26.10139 37.09170 31929 ft 437 kts 274°
2026-05-03 23:01 26.11012 37.02481 31903 ft 437 kts 274°
2026-05-03 23:02 26.11881 36.95794 31917 ft 436 kts 274°
2026-05-03 23:02 26.12745 36.89120 31865 ft 435 kts 273°
2026-05-03 23:03 26.13604 36.82466 31886 ft 435 kts 273°
2026-05-03 23:03 26.14455 36.75851 31899 ft 435 kts 273°
2026-05-03 23:04 26.15309 36.69180 31900 ft 435 kts 273°
2026-05-03 23:04 26.16166 36.62468 31890 ft 435 kts 273°
2026-05-03 23:05 26.16871 36.56925 31883 ft 435 kts 273°
2026-05-03 23:05 26.18863 36.49385 31899 ft 447 kts 290°
2026-05-03 23:06 26.22299 36.43518 31882 ft 463 kts 304°
2026-05-03 23:06 26.26072 36.39196 31884 ft 465 kts 306°
2026-05-03 23:07 26.30627 36.34090 31897 ft 464 kts 306°
2026-05-03 23:07 26.35860 36.28127 31891 ft 462 kts 306°
2026-05-03 23:08 26.39600 36.23815 31908 ft 461 kts 306°
2026-05-03 23:08 26.44047 36.18670 31897 ft 460 kts 306°
2026-05-03 23:09 26.48489 36.13526 31893 ft 460 kts 306°
2026-05-03 23:09 26.52924 36.08387 31894 ft 460 kts 306°
2026-05-03 23:10 26.57359 36.03243 31902 ft 460 kts 306°
2026-05-03 23:10 26.61798 35.98088 31902 ft 460 kts 306°
2026-05-03 23:11 26.66242 35.92921 31938 ft 461 kts 305°
2026-05-03 23:11 26.70662 35.87775 31908 ft 462 kts 305°
2026-05-03 23:12 26.75107 35.82596 31904 ft 461 kts 305°
2026-05-03 23:12 26.79558 35.77403 31907 ft 461 kts 305°
2026-05-03 23:13 26.83993 35.72224 31916 ft 461 kts 305°
2026-05-03 23:13 26.88425 35.67041 31904 ft 460 kts 305°
2026-05-03 23:14 26.92845 35.61865 31911 ft 459 kts 305°
2026-05-03 23:14 26.97265 35.56681 31911 ft 459 kts 305°
2026-05-03 23:15 27.01674 35.51505 31909 ft 459 kts 305°
2026-05-03 23:15 27.06084 35.46321 31920 ft 460 kts 305°
2026-05-03 23:16 27.10468 35.41161 31923 ft 460 kts 305°
2026-05-03 23:16 27.14877 35.35967 31915 ft 460 kts 305°
2026-05-03 23:17 27.19287 35.30764 31914 ft 460 kts 305°
2026-05-03 23:17 27.23695 35.25558 31913 ft 460 kts 305°
2026-05-03 23:18 27.28102 35.20346 31920 ft 459 kts 305°
2026-05-03 23:18 27.32507 35.15129 31918 ft 459 kts 305°
2026-05-03 23:19 27.36902 35.09919 31914 ft 459 kts 305°
2026-05-03 23:19 27.41296 35.04703 31962 ft 459 kts 304°
2026-05-03 23:20 27.45679 34.99493 31932 ft 458 kts 304°
2026-05-03 23:20 27.50027 34.94321 31911 ft 457 kts 304°
2026-05-03 23:21 27.54564 34.89280 31930 ft 459 kts 308°
2026-05-03 23:21 27.59239 34.84379 31930 ft 459 kts 308°
2026-05-03 23:22 27.66237 34.77014 31926 ft 458 kts 308°
2026-05-03 23:22 27.70890 34.72082 31918 ft 459 kts 308°
2026-05-03 23:23 27.75546 34.67138 31916 ft 460 kts 308°
2026-05-03 23:23 27.80220 34.62170 31930 ft 462 kts 308°
2026-05-03 23:24 27.84876 34.57215 31936 ft 463 kts 308°
2026-05-03 23:24 27.89568 34.52217 31937 ft 463 kts 308°
2026-05-03 23:25 27.94260 34.47213 31950 ft 463 kts 308°
2026-05-03 23:25 27.98950 34.42198 31939 ft 463 kts 307°
2026-05-03 23:26 28.03139 34.36798 31943 ft 454 kts 301°
2026-05-03 23:26 28.07117 34.31236 31939 ft 454 kts 301°
2026-05-03 23:27 28.11099 34.25690 31946 ft 454 kts 301°
2026-05-03 23:27 28.15100 34.20136 31990 ft 454 kts 301°
2026-05-03 23:28 28.19093 34.14593 31972 ft 454 kts 301°
2026-05-03 23:28 28.23087 34.09050 31988 ft 454 kts 301°
2026-05-03 23:29 28.27074 34.03500 31967 ft 453 kts 301°
2026-05-03 23:29 28.31035 33.97988 31996 ft 449 kts 301°
2026-05-03 23:30 28.34981 33.92481 32023 ft 451 kts 300°
2026-05-03 23:30 28.38942 33.86942 31997 ft 452 kts 301°
2026-05-03 23:31 28.42904 33.81401 32003 ft 451 kts 301°
2026-05-03 23:31 28.46849 33.75879 31994 ft 449 kts 300°
2026-05-03 23:32 28.50773 33.70375 31985 ft 447 kts 300°
2026-05-03 23:32 28.54663 33.64910 32037 ft 448 kts 300°
2026-05-03 23:33 28.58586 33.59383 32011 ft 449 kts 300°
2026-05-03 23:33 28.62518 33.53843 32017 ft 450 kts 300°
2026-05-03 23:34 28.66454 33.48293 32021 ft 450 kts 300°
2026-05-03 23:34 28.70388 33.42750 32025 ft 450 kts 300°
2026-05-03 23:35 28.74318 33.37204 32018 ft 449 kts 300°
2026-05-03 23:35 28.78211 33.31700 32019 ft 448 kts 300°
2026-05-03 23:36 28.82118 33.26167 32020 ft 448 kts 300°
2026-05-03 23:36 28.86020 33.20634 32029 ft 447 kts 300°
2026-05-03 23:37 28.89918 33.15099 32040 ft 448 kts 300°
2026-05-03 23:37 28.93823 33.09546 32031 ft 448 kts 300°
2026-05-03 23:38 28.97723 33.03994 32033 ft 448 kts 300°
2026-05-03 23:38 29.01627 32.98430 32028 ft 449 kts 300°
2026-05-03 23:39 29.05527 32.92863 32046 ft 449 kts 300°
2026-05-03 23:39 29.09426 32.87289 32043 ft 449 kts 300°
2026-05-03 23:40 29.13324 32.81710 32046 ft 449 kts 300°
2026-05-03 23:40 29.17224 32.76121 32046 ft 449 kts 300°
2026-05-03 23:41 29.21088 32.70575 32049 ft 449 kts 300°
2026-05-03 23:41 29.24977 32.64985 32049 ft 448 kts 300°
2026-05-03 23:42 29.28859 32.59398 32063 ft 448 kts 300°
2026-05-03 23:42 29.32713 32.53799 32051 ft 446 kts 300°
2026-05-03 23:43 29.36536 32.48215 32066 ft 444 kts 300°
2026-05-03 23:43 29.40339 32.42659 32058 ft 442 kts 300°
2026-05-03 23:44 29.44121 32.37129 32056 ft 439 kts 300°
2026-05-03 23:44 29.47882 32.31621 32075 ft 438 kts 300°
2026-05-03 23:45 29.51601 32.26168 32074 ft 435 kts 300°
2026-05-03 23:45 29.55328 32.20696 32063 ft 434 kts 299°
2026-05-03 23:46 29.59038 32.15241 32077 ft 434 kts 299°
2026-05-03 23:46 29.62756 32.09766 32078 ft 435 kts 299°
2026-05-03 23:47 29.66480 32.04275 32084 ft 435 kts 300°
2026-05-03 23:47 29.70201 31.98784 32074 ft 435 kts 300°
2026-05-03 23:48 29.73919 31.93288 32074 ft 435 kts 299°
2026-05-03 23:48 29.77631 31.87797 32081 ft 434 kts 299°
2026-05-03 23:49 29.81261 31.82277 32081 ft 431 kts 298°
2026-05-03 23:49 29.84782 31.76768 32084 ft 429 kts 298°
2026-05-03 23:50 29.87750 31.72138 32068 ft 428 kts 298°
2026-05-03 23:50 29.91865 31.65736 32076 ft 427 kts 298°
2026-05-03 23:51 29.95415 31.60232 32078 ft 428 kts 298°
2026-05-03 23:51 29.98974 31.54713 32078 ft 428 kts 298°
2026-05-03 23:52 30.02531 31.49187 32076 ft 429 kts 298°
2026-05-03 23:52 30.06084 31.43659 32076 ft 428 kts 298°
2026-05-03 23:53 30.09775 31.38282 32070 ft 434 kts 303°
2026-05-03 23:53 30.14186 31.33412 32078 ft 440 kts 308°
2026-05-03 23:54 30.18686 31.28629 32082 ft 439 kts 307°
2026-05-03 23:54 30.23151 31.23850 32100 ft 436 kts 307°
2026-05-03 23:55 30.27590 31.19078 32087 ft 435 kts 307°
2026-05-03 23:55 30.32017 31.14310 32081 ft 434 kts 307°
2026-05-03 23:56 30.35694 31.10346 32085 ft 434 kts 307°
2026-05-03 23:56 30.40116 31.05572 32094 ft 435 kts 307°
2026-05-03 23:57 30.44541 31.00789 32082 ft 436 kts 307°
2026-05-03 23:57 30.48973 30.95994 32094 ft 436 kts 307°
2026-05-03 23:58 30.53420 30.91176 32085 ft 438 kts 307°
2026-05-03 23:58 30.57873 30.86347 32084 ft 438 kts 307°
2026-05-03 23:59 30.62328 30.81509 32078 ft 438 kts 307°
2026-05-03 23:59 30.66777 30.76671 32080 ft 438 kts 307°
2026-05-04 00:00 30.71223 30.71830 32074 ft 438 kts 307°
2026-05-04 00:00 30.75659 30.66993 32076 ft 437 kts 307°
2026-05-04 00:01 30.80094 30.62149 32071 ft 437 kts 307°
2026-05-04 00:01 30.84499 30.57333 32103 ft 437 kts 307°
2026-05-04 00:02 30.88929 30.52482 32074 ft 437 kts 307°
2026-05-04 00:02 30.93351 30.47634 32059 ft 436 kts 307°
2026-05-04 00:03 30.97764 30.42788 32056 ft 435 kts 307°
2026-05-04 00:03 31.02165 30.37949 32063 ft 435 kts 307°
2026-05-04 00:04 31.06460 30.33026 32052 ft 426 kts 300°
2026-05-04 00:04 31.09618 30.27337 32074 ft 416 kts 291°
2026-05-04 00:05 31.11763 30.21114 32074 ft 413 kts 282°
2026-05-04 00:05 31.13463 30.14714 32056 ft 413 kts 282°
2026-05-04 00:06 31.15198 30.08312 32065 ft 414 kts 282°
2026-05-04 00:06 31.16945 30.01918 32055 ft 413 kts 282°
2026-05-04 00:07 31.19148 29.95728 32084 ft 418 kts 290°
2026-05-04 00:07 31.22046 29.89823 32078 ft 423 kts 297°
2026-05-04 00:08 31.25523 29.84246 32074 ft 424 kts 298°
2026-05-04 00:08 31.29018 29.78709 32108 ft 423 kts 298°
2026-05-04 00:09 31.32490 29.73168 32067 ft 421 kts 298°
2026-05-04 00:09 31.35928 29.67648 32054 ft 419 kts 298°
2026-05-04 00:10 31.39349 29.62141 32047 ft 418 kts 298°
2026-05-04 00:10 31.42759 29.56641 32047 ft 418 kts 298°
2026-05-04 00:11 31.46174 29.51126 32057 ft 419 kts 298°
2026-05-04 00:11 31.49593 29.45600 32049 ft 419 kts 298°
2026-05-04 00:12 31.53013 29.40064 32047 ft 420 kts 298°
2026-05-04 00:12 31.56414 29.34550 32049 ft 420 kts 298°
2026-05-04 00:13 31.59834 29.28994 32047 ft 420 kts 298°
2026-05-04 00:13 31.63229 29.23428 32060 ft 420 kts 298°
2026-05-04 00:14 31.66623 29.17854 32055 ft 419 kts 298°
2026-05-04 00:14 31.70012 29.12284 32074 ft 420 kts 298°
2026-05-04 00:15 31.73398 29.06714 32050 ft 418 kts 298°
2026-05-04 00:15 31.76779 29.01169 32050 ft 417 kts 298°
2026-05-04 00:16 31.80152 28.95638 32053 ft 416 kts 298°
2026-05-04 00:16 31.83514 28.90113 32048 ft 415 kts 298°
2026-05-04 00:17 31.86875 28.84578 32049 ft 415 kts 298°
2026-05-04 00:17 31.90235 28.79037 32050 ft 416 kts 298°
2026-05-04 00:18 31.93576 28.73520 32049 ft 416 kts 298°
2026-05-04 00:18 31.96940 28.67957 32049 ft 417 kts 298°
2026-05-04 00:19 32.00300 28.62392 32053 ft 417 kts 298°
2026-05-04 00:19 32.03662 28.56816 32046 ft 418 kts 298°
2026-05-04 00:20 32.07028 28.51226 32052 ft 418 kts 298°
2026-05-04 00:20 32.10390 28.45635 32075 ft 419 kts 298°
2026-05-04 00:21 32.13755 28.40028 32053 ft 419 kts 298°
2026-05-04 00:21 32.17120 28.34415 32051 ft 419 kts 299°
2026-05-04 00:22 32.20485 28.28793 32049 ft 419 kts 299°
2026-05-04 00:22 32.23843 28.23177 32049 ft 419 kts 299°
2026-05-04 00:23 32.27198 28.17554 32049 ft 419 kts 299°
2026-05-04 00:23 32.30553 28.11924 32049 ft 419 kts 299°
2026-05-04 00:24 32.33883 28.06327 32067 ft 419 kts 299°
2026-05-04 00:24 32.37234 28.00686 32055 ft 419 kts 300°
2026-05-04 00:25 32.40580 27.95047 32052 ft 419 kts 300°
2026-05-04 00:25 32.43924 27.89401 32052 ft 418 kts 300°
2026-05-04 00:26 32.47261 27.83759 32052 ft 418 kts 300°
2026-05-04 00:26 32.50593 27.78116 32083 ft 418 kts 300°
2026-05-04 00:27 32.53926 27.72465 32056 ft 418 kts 300°
2026-05-04 00:27 32.57257 27.66807 32052 ft 418 kts 300°
2026-05-04 00:28 32.60577 27.61161 32052 ft 417 kts 300°
2026-05-04 00:28 32.63891 27.55515 32056 ft 417 kts 300°
2026-05-04 00:29 32.67198 27.49871 32057 ft 417 kts 300°
2026-05-04 00:29 32.70508 27.44216 32057 ft 417 kts 300°
2026-05-04 00:30 32.73813 27.38562 32058 ft 417 kts 300°
2026-05-04 00:30 32.77119 27.32899 32057 ft 417 kts 300°
2026-05-04 00:31 32.80398 27.27270 32060 ft 417 kts 300°
2026-05-04 00:31 32.83700 27.21593 32058 ft 417 kts 300°
2026-05-04 00:32 32.86999 27.15914 32056 ft 417 kts 301°
2026-05-04 00:32 32.90296 27.10229 32058 ft 417 kts 301°
2026-05-04 00:33 32.95228 27.01709 32059 ft 417 kts 301°
2026-05-04 00:34 32.98510 26.96026 32056 ft 416 kts 301°
2026-05-04 00:34 33.01762 26.90366 32057 ft 416 kts 301°
2026-05-04 00:35 33.05026 26.84668 32062 ft 416 kts 301°
2026-05-04 00:35 33.08305 26.78939 32059 ft 416 kts 301°
2026-05-04 00:36 33.11540 26.73277 32065 ft 416 kts 301°
2026-05-04 00:36 33.14814 26.67539 32063 ft 416 kts 301°
2026-05-04 00:37 33.18064 26.61835 32069 ft 416 kts 301°
2026-05-04 00:37 33.21289 26.56165 32072 ft 416 kts 301°
2026-05-04 00:38 33.24531 26.50457 32075 ft 415 kts 301°
2026-05-04 00:38 33.27768 26.44749 32071 ft 414 kts 301°
2026-05-04 00:39 33.31000 26.39042 32079 ft 415 kts 302°
2026-05-04 00:39 33.34229 26.33330 32076 ft 414 kts 302°
2026-05-04 00:40 33.37452 26.27619 32073 ft 414 kts 302°
2026-05-04 00:40 33.40669 26.21911 32073 ft 414 kts 302°
2026-05-04 00:41 33.43888 26.16190 32077 ft 414 kts 302°
2026-05-04 00:41 33.47104 26.10466 32085 ft 414 kts 302°
2026-05-04 00:42 33.50318 26.04737 32079 ft 414 kts 302°
2026-05-04 00:42 33.52990 25.99968 32086 ft 415 kts 302°
2026-05-04 00:43 33.56744 25.93254 32065 ft 415 kts 302°
2026-05-04 00:43 33.59952 25.87510 32081 ft 414 kts 302°
2026-05-04 00:44 33.62613 25.82737 32084 ft 415 kts 302°
2026-05-04 00:44 33.65821 25.76975 32085 ft 415 kts 302°
2026-05-04 00:45 33.69028 25.71204 32086 ft 415 kts 302°
2026-05-04 00:45 33.72239 25.65416 32091 ft 417 kts 302°
2026-05-04 00:46 33.75427 25.59664 32100 ft 416 kts 303°
2026-05-04 00:46 33.78633 25.53868 32099 ft 416 kts 303°
2026-05-04 00:47 33.81834 25.48074 32088 ft 416 kts 303°
2026-05-04 00:47 33.85031 25.42275 32087 ft 416 kts 303°
2026-05-04 00:48 33.88222 25.36478 32091 ft 415 kts 302°
2026-05-04 00:48 33.91411 25.30675 32102 ft 415 kts 303°
2026-05-04 00:49 33.94595 25.24873 32103 ft 415 kts 303°
2026-05-04 00:49 33.97777 25.19066 32103 ft 415 kts 302°
2026-05-04 00:50 34.00535 25.12967 32110 ft 415 kts 295°
2026-05-04 00:50 34.02598 25.06463 32111 ft 416 kts 291°
2026-05-04 00:51 34.04553 24.99898 32085 ft 416 kts 292°
2026-05-04 00:51 34.06514 24.93328 32101 ft 416 kts 292°
2026-05-04 00:52 34.08466 24.86795 32108 ft 416 kts 292°
2026-05-04 00:52 34.10429 24.80216 32109 ft 417 kts 292°
2026-05-04 00:53 34.12391 24.73628 32115 ft 417 kts 292°
2026-05-04 00:53 34.14348 24.67040 32115 ft 417 kts 292°
2026-05-04 00:54 34.16303 24.60446 32119 ft 417 kts 292°
2026-05-04 00:54 34.18253 24.53850 32117 ft 417 kts 291°
2026-05-04 00:55 34.20199 24.47256 32136 ft 418 kts 292°
2026-05-04 00:55 34.22149 24.40632 32116 ft 418 kts 292°
2026-05-04 00:56 34.24096 24.34003 32122 ft 418 kts 292°
2026-05-04 00:56 34.26027 24.27414 32106 ft 419 kts 292°
2026-05-04 00:57 34.27968 24.20774 32122 ft 419 kts 292°
2026-05-04 00:57 34.29905 24.14134 32122 ft 419 kts 292°
2026-05-04 00:58 34.31841 24.07484 32127 ft 419 kts 292°
2026-05-04 00:58 34.33766 24.00851 32115 ft 418 kts 292°
2026-05-04 00:59 34.35689 23.94214 32118 ft 418 kts 292°
2026-05-04 00:59 34.37607 23.87577 32126 ft 418 kts 292°
2026-05-04 01:00 34.39523 23.80935 32124 ft 418 kts 292°
2026-05-04 01:00 34.41436 23.74284 32107 ft 418 kts 292°
2026-05-04 01:01 34.43344 23.67636 32124 ft 418 kts 292°
2026-05-04 01:01 34.45247 23.60990 32139 ft 418 kts 292°
2026-05-04 01:02 34.47151 23.54325 32135 ft 419 kts 292°
2026-05-04 01:02 34.49054 23.47646 32139 ft 419 kts 292°
2026-05-04 01:03 34.50951 23.40972 32116 ft 419 kts 292°
2026-05-04 01:03 34.52845 23.34294 32135 ft 418 kts 292°
2026-05-04 01:04 34.54732 23.27627 32143 ft 418 kts 292°
2026-05-04 01:04 34.56606 23.20988 32138 ft 418 kts 292°
2026-05-04 01:05 34.58488 23.14306 32162 ft 418 kts 292°
2026-05-04 01:05 34.60365 23.07621 32150 ft 418 kts 292°
2026-05-04 01:06 34.62241 23.00934 32152 ft 418 kts 292°
2026-05-04 01:06 34.64360 22.94386 32160 ft 416 kts 295°
2026-05-04 01:07 34.66568 22.87887 32155 ft 416 kts 295°
2026-05-04 01:07 34.68775 22.81373 32161 ft 417 kts 295°
2026-05-04 01:08 34.70970 22.74851 32157 ft 416 kts 295°
2026-05-04 01:08 34.73155 22.68333 32165 ft 416 kts 295°
2026-05-04 01:09 34.75321 22.61851 32165 ft 417 kts 295°
2026-05-04 01:09 34.77501 22.55317 32164 ft 417 kts 295°
2026-05-04 01:10 34.79677 22.48780 32166 ft 417 kts 295°
2026-05-04 01:10 34.81846 22.42248 32161 ft 416 kts 295°
2026-05-04 01:11 34.84014 22.35708 32168 ft 416 kts 295°
2026-05-04 01:11 34.86177 22.29169 32169 ft 416 kts 295°
2026-05-04 01:12 34.88335 22.22630 32167 ft 416 kts 295°
2026-05-04 01:12 34.90489 22.16087 32195 ft 417 kts 295°
2026-05-04 01:13 34.92645 22.09527 32165 ft 417 kts 295°
2026-05-04 01:13 34.94783 22.03007 32169 ft 417 kts 295°
2026-05-04 01:14 34.96945 21.96399 32172 ft 417 kts 295°
2026-05-04 01:14 34.99081 21.89856 32172 ft 418 kts 295°
2026-05-04 01:15 35.01227 21.83270 32174 ft 418 kts 295°
2026-05-04 01:15 35.03369 21.76681 32161 ft 418 kts 295°
2026-05-04 01:16 35.05508 21.70085 32178 ft 418 kts 295°
2026-05-04 01:16 35.07645 21.63482 32174 ft 418 kts 295°
2026-05-04 01:17 35.09780 21.56872 32175 ft 419 kts 295°
2026-05-04 01:17 35.11911 21.50258 32169 ft 419 kts 295°
2026-05-04 01:18 35.14039 21.43638 32173 ft 418 kts 295°
2026-05-04 01:18 35.16163 21.37016 32177 ft 418 kts 295°
2026-05-04 01:19 35.18283 21.30394 32176 ft 418 kts 295°
2026-05-04 01:19 35.20384 21.23815 32175 ft 418 kts 295°
2026-05-04 01:20 35.22497 21.17183 32175 ft 418 kts 295°
2026-05-04 01:20 35.24605 21.10553 32161 ft 418 kts 295°
2026-05-04 01:21 35.26708 21.03925 32174 ft 419 kts 295°
2026-05-04 01:21 35.28814 20.97272 32174 ft 420 kts 295°
2026-05-04 01:22 35.30919 20.90605 32172 ft 420 kts 295°
2026-05-04 01:22 35.33022 20.83932 32173 ft 420 kts 295°
2026-05-04 01:23 35.35127 20.77235 32170 ft 420 kts 295°
2026-05-04 01:23 35.37223 20.70553 32177 ft 421 kts 295°
2026-05-04 01:24 35.39322 20.63848 32177 ft 421 kts 295°
2026-05-04 01:24 35.41402 20.57185 32178 ft 421 kts 295°
2026-05-04 01:25 35.43495 20.50468 32179 ft 422 kts 294°
2026-05-04 01:25 35.45583 20.43748 32170 ft 421 kts 294°
2026-05-04 01:26 35.47667 20.37028 32184 ft 422 kts 295°
2026-05-04 01:26 35.49753 20.30289 32178 ft 423 kts 294°
2026-05-04 01:27 35.51840 20.23526 32176 ft 424 kts 294°
2026-05-04 01:27 35.53924 20.16758 32178 ft 424 kts 294°
2026-05-04 01:28 35.56007 20.09979 32165 ft 423 kts 294°
2026-05-04 01:28 35.58085 20.03199 32171 ft 423 kts 294°
2026-05-04 01:29 35.60154 19.96433 32175 ft 423 kts 294°
2026-05-04 01:29 35.62223 19.89652 32181 ft 424 kts 294°
2026-05-04 01:30 35.64272 19.82917 32174 ft 424 kts 294°
2026-05-04 01:30 35.66333 19.76131 32175 ft 423 kts 294°
2026-05-04 01:31 35.68387 19.69351 32176 ft 423 kts 294°
2026-05-04 01:31 35.70439 19.62561 32177 ft 424 kts 294°
2026-05-04 01:32 35.72145 19.56903 32178 ft 424 kts 294°
2026-05-04 01:32 35.74192 19.50100 32175 ft 424 kts 294°
2026-05-04 01:33 35.76237 19.43290 32153 ft 424 kts 294°
2026-05-04 01:33 35.78275 19.36484 32175 ft 424 kts 294°
2026-05-04 01:34 35.80315 19.29657 32175 ft 425 kts 294°
2026-05-04 01:34 35.82355 19.22811 32175 ft 426 kts 294°
2026-05-04 01:35 35.84395 19.15949 32175 ft 426 kts 294°
2026-05-04 01:35 35.86431 19.09083 32160 ft 426 kts 293°
2026-05-04 01:36 35.88467 19.02202 32173 ft 428 kts 293°
2026-05-04 01:36 35.90506 18.95295 32173 ft 429 kts 293°
2026-05-04 01:37 35.92548 18.88358 32172 ft 430 kts 293°
2026-05-04 01:37 35.94591 18.81403 32171 ft 431 kts 293°
2026-05-04 01:38 35.96613 18.74498 32160 ft 431 kts 293°
2026-05-04 01:38 35.98648 18.67537 32175 ft 432 kts 293°
2026-05-04 01:39 36.00687 18.60543 32183 ft 433 kts 293°
2026-05-04 01:39 36.02724 18.53534 32176 ft 433 kts 293°
2026-05-04 01:40 36.04756 18.46529 32170 ft 433 kts 293°
2026-05-04 01:40 36.06781 18.39529 32158 ft 433 kts 292°
2026-05-04 01:41 36.08811 18.32497 32175 ft 435 kts 292°
2026-05-04 01:41 36.10842 18.25442 32174 ft 436 kts 292°
2026-05-04 01:42 36.12865 18.18395 32172 ft 438 kts 292°
2026-05-04 01:42 36.14911 18.11248 32174 ft 438 kts 292°
2026-05-04 01:43 36.16927 18.04190 32173 ft 438 kts 292°
2026-05-04 01:43 36.18950 17.97089 32174 ft 437 kts 292°
2026-05-04 01:44 36.20966 17.89994 32174 ft 437 kts 292°
2026-05-04 01:44 36.22978 17.82896 32177 ft 436 kts 292°
2026-05-04 01:45 36.24982 17.75805 32175 ft 436 kts 292°
2026-05-04 01:45 36.27985 17.65151 32179 ft 438 kts 292°
2026-05-04 01:46 36.29988 17.58017 32182 ft 439 kts 292°
2026-05-04 01:46 36.31996 17.50851 32181 ft 440 kts 292°
2026-05-04 01:47 36.34001 17.43673 32176 ft 441 kts 291°
2026-05-04 01:47 36.36004 17.36485 32166 ft 441 kts 291°
2026-05-04 01:48 36.38005 17.29281 32171 ft 442 kts 291°
2026-05-04 01:48 36.40006 17.22063 32180 ft 443 kts 291°
2026-05-04 01:49 36.41990 17.14882 32179 ft 443 kts 291°
2026-05-04 01:49 36.43985 17.07643 32177 ft 443 kts 291°
2026-05-04 01:50 36.45977 17.00398 32172 ft 444 kts 290°
2026-05-04 01:50 36.47969 16.93133 32177 ft 445 kts 290°
2026-05-04 01:51 36.50080 16.85909 32183 ft 445 kts 295°
2026-05-04 01:51 36.52993 16.79137 32190 ft 444 kts 301°
2026-05-04 01:52 36.56112 16.72494 32185 ft 445 kts 301°
2026-05-04 01:52 36.59216 16.65824 32169 ft 445 kts 300°
2026-05-04 01:53 36.62306 16.59139 32180 ft 446 kts 300°
2026-05-04 01:53 36.65397 16.52431 32182 ft 447 kts 300°
2026-05-04 01:54 36.68494 16.45698 32182 ft 448 kts 300°
2026-05-04 01:54 36.71588 16.38955 32182 ft 448 kts 300°
2026-05-04 01:55 36.74677 16.32213 32167 ft 449 kts 300°
2026-05-04 01:55 36.77754 16.25482 32180 ft 450 kts 300°
2026-05-04 01:56 36.80857 16.18681 32185 ft 452 kts 300°
2026-05-04 01:56 36.83968 16.11848 32181 ft 453 kts 300°
2026-05-04 01:57 36.87075 16.05010 32191 ft 453 kts 300°
2026-05-04 01:57 36.90177 15.98169 32169 ft 452 kts 300°
2026-05-04 01:58 36.93278 15.91315 32174 ft 453 kts 300°
2026-05-04 01:58 36.96384 15.84438 32179 ft 455 kts 299°
2026-05-04 01:59 36.99493 15.77537 32177 ft 456 kts 299°
2026-05-04 01:59 37.02602 15.70622 32177 ft 456 kts 299°
2026-05-04 02:00 37.05694 15.63732 32167 ft 456 kts 299°
2026-05-04 02:00 37.08801 15.56793 32176 ft 457 kts 299°
2026-05-04 02:01 37.11908 15.49837 32179 ft 458 kts 299°
2026-05-04 02:01 37.15017 15.42865 32177 ft 459 kts 299°
2026-05-04 02:02 37.18127 15.35874 32177 ft 459 kts 299°
2026-05-04 02:02 37.21232 15.28880 32180 ft 459 kts 299°
2026-05-04 02:03 37.24332 15.21881 32179 ft 459 kts 298°
2026-05-04 02:03 37.27437 15.14858 32181 ft 460 kts 298°
2026-05-04 02:04 37.30542 15.07818 32192 ft 460 kts 298°
2026-05-04 02:04 37.33640 15.00778 32185 ft 461 kts 298°
2026-05-04 02:05 37.36740 14.93719 32182 ft 461 kts 298°
2026-05-04 02:05 37.39830 14.86668 32181 ft 461 kts 298°
2026-05-04 02:06 37.42923 14.79596 32188 ft 461 kts 298°
2026-05-04 02:06 37.45988 14.72568 32188 ft 461 kts 298°
2026-05-04 02:07 37.49093 14.65437 32187 ft 462 kts 298°
2026-05-04 02:07 37.52177 14.58336 32201 ft 462 kts 298°
2026-05-04 02:08 37.55258 14.51229 32200 ft 462 kts 298°
2026-05-04 02:08 37.58313 14.44165 32210 ft 462 kts 298°
2026-05-04 02:09 37.61380 14.37056 32211 ft 462 kts 298°
2026-05-04 02:09 37.64446 14.29936 32213 ft 462 kts 298°
2026-05-04 02:10 37.67509 14.22804 32214 ft 461 kts 298°
2026-05-04 02:10 37.70567 14.15669 32224 ft 462 kts 298°
2026-05-04 02:11 37.73621 14.08527 32221 ft 463 kts 298°
2026-05-04 02:11 37.76678 14.01361 32224 ft 463 kts 297°
2026-05-04 02:12 37.79253 13.93958 32220 ft 463 kts 291°
2026-05-04 02:12 37.81618 13.86374 32222 ft 464 kts 291°
2026-05-04 02:13 37.84008 13.78792 32228 ft 464 kts 291°
2026-05-04 02:13 37.86411 13.71205 32213 ft 465 kts 291°
2026-05-04 02:14 37.88819 13.63595 32210 ft 465 kts 292°
2026-05-04 02:14 37.91252 13.55993 32199 ft 466 kts 292°
2026-05-04 02:15 37.93685 13.48379 32214 ft 465 kts 292°
2026-05-04 02:15 37.96107 13.40767 32213 ft 466 kts 292°
2026-05-04 02:16 37.98528 13.33133 32203 ft 466 kts 291°
2026-05-04 02:16 38.00928 13.25542 32193 ft 467 kts 291°
2026-05-04 02:17 38.03338 13.17901 32195 ft 467 kts 291°
2026-05-04 02:17 38.05735 13.10240 32155 ft 467 kts 291°
2026-05-04 02:18 38.08119 13.02561 32158 ft 468 kts 291°
2026-05-04 02:18 38.10503 12.94863 32161 ft 468 kts 291°
2026-05-04 02:19 38.12886 12.87156 32166 ft 469 kts 291°
2026-05-04 02:19 38.15250 12.79491 32173 ft 469 kts 291°
2026-05-04 02:20 38.17623 12.71774 32178 ft 469 kts 290°
2026-05-04 02:20 38.19991 12.64051 32176 ft 469 kts 290°
2026-05-04 02:21 38.21957 12.57624 32179 ft 469 kts 290°
2026-05-04 02:21 38.24717 12.48575 32177 ft 469 kts 290°
2026-05-04 02:22 38.26677 12.42131 32179 ft 469 kts 290°
2026-05-04 02:22 38.29030 12.34377 32171 ft 470 kts 290°
2026-05-04 02:23 38.31380 12.26608 32167 ft 470 kts 290°
2026-05-04 02:23 38.33727 12.18829 32170 ft 470 kts 290°
2026-05-04 02:24 38.36053 12.11101 32166 ft 470 kts 290°
2026-05-04 02:24 38.38403 12.03320 32156 ft 471 kts 290°
2026-05-04 02:25 38.40757 11.95526 32159 ft 471 kts 290°
2026-05-04 02:25 38.43104 11.87728 32156 ft 471 kts 290°
2026-05-04 02:26 38.45443 11.79926 32152 ft 471 kts 290°
2026-05-04 02:26 38.47779 11.72111 32147 ft 471 kts 290°
2026-05-04 02:27 38.50106 11.64302 32155 ft 470 kts 290°
2026-05-04 02:27 38.52417 11.56530 32139 ft 466 kts 290°
2026-05-04 02:28 38.54705 11.48811 32147 ft 463 kts 290°
2026-05-04 02:28 38.56977 11.41126 32136 ft 462 kts 290°
2026-05-04 02:29 38.59251 11.33407 32146 ft 465 kts 290°
2026-05-04 02:29 38.61516 11.25695 32146 ft 466 kts 290°
2026-05-04 02:30 38.63787 11.17946 32128 ft 463 kts 290°
2026-05-04 02:30 38.66037 11.10244 32131 ft 461 kts 290°
2026-05-04 02:31 38.68270 11.02583 32139 ft 459 kts 290°
2026-05-04 02:31 38.71062 10.95264 32123 ft 459 kts 301°
2026-05-04 02:32 38.74923 10.88750 32131 ft 461 kts 311°
2026-05-04 02:32 38.79361 10.82796 32127 ft 462 kts 312°
2026-05-04 02:33 38.83824 10.76853 32126 ft 463 kts 312°
2026-05-04 02:33 38.88243 10.70906 32120 ft 465 kts 311°
2026-05-04 02:34 38.92701 10.64859 32124 ft 467 kts 311°
2026-05-04 02:34 38.97168 10.58777 32124 ft 469 kts 311°
2026-05-04 02:35 39.01609 10.52722 32118 ft 456 kts 311°
2026-05-04 02:35 39.05920 10.46833 32116 ft 452 kts 311°
2026-05-04 02:36 39.10243 10.40913 32126 ft 454 kts 311°
2026-05-04 02:36 39.14593 10.34945 32134 ft 462 kts 311°
2026-05-04 02:37 39.19031 10.28843 32122 ft 466 kts 311°
2026-05-04 02:37 39.23451 10.22759 32112 ft 464 kts 311°
2026-05-04 02:38 39.27818 10.16737 32117 ft 459 kts 311°
2026-05-04 02:38 39.32148 10.10753 32115 ft 454 kts 311°
2026-05-04 02:39 39.36437 10.04812 32117 ft 450 kts 311°
2026-05-04 02:39 39.40731 9.98850 32130 ft 459 kts 310°
2026-05-04 02:40 39.45101 9.92771 32120 ft 461 kts 310°
2026-05-04 02:40 39.49458 9.86704 32119 ft 459 kts 310°
2026-05-04 02:41 39.53793 9.80654 32124 ft 456 kts 310°
2026-05-04 02:41 39.58097 9.74635 32121 ft 453 kts 310°
2026-05-04 02:42 39.62369 9.68649 32123 ft 451 kts 310°
2026-05-04 02:42 39.66624 9.62673 32128 ft 452 kts 310°
2026-05-04 02:43 39.70865 9.56703 32144 ft 453 kts 310°
2026-05-04 02:43 39.75169 9.50638 32140 ft 454 kts 310°
2026-05-04 02:44 39.79429 9.44620 32142 ft 456 kts 310°
2026-05-04 02:44 39.83719 9.38549 32111 ft 455 kts 309°
2026-05-04 02:45 39.87995 9.32487 32144 ft 454 kts 309°
2026-05-04 02:45 39.92264 9.26421 32141 ft 454 kts 309°
2026-05-04 02:46 39.96529 9.20348 32140 ft 454 kts 309°
2026-05-04 02:46 40.00794 9.14265 32140 ft 454 kts 309°
2026-05-04 02:47 40.05061 9.08165 32116 ft 455 kts 309°
2026-05-04 02:47 40.09322 9.02063 32113 ft 454 kts 309°
2026-05-04 02:48 40.13576 8.95958 32127 ft 454 kts 309°
2026-05-04 02:48 40.17829 8.89842 32106 ft 454 kts 309°
2026-05-04 02:49 40.22077 8.83718 32111 ft 455 kts 309°
2026-05-04 02:49 40.26330 8.77578 32102 ft 455 kts 308°
2026-05-04 02:50 40.30552 8.71471 32103 ft 455 kts 308°
2026-05-04 02:50 40.34802 8.65310 32106 ft 456 kts 308°
2026-05-04 02:51 40.39051 8.59137 32096 ft 456 kts 308°
2026-05-04 02:51 40.43300 8.52951 32098 ft 456 kts 308°
2026-05-04 02:52 40.47550 8.46753 32086 ft 456 kts 308°
2026-05-04 02:52 40.51786 8.40562 32079 ft 456 kts 308°
2026-05-04 02:53 40.56021 8.34359 32091 ft 455 kts 308°
2026-05-04 02:53 40.60254 8.28146 32077 ft 456 kts 307°
2026-05-04 02:54 40.64732 8.22275 32075 ft 462 kts 316°
2026-05-04 02:54 40.69813 8.17062 32083 ft 464 kts 317°
2026-05-04 02:55 40.77449 8.09158 32079 ft 466 kts 317°
2026-05-04 02:56 40.82533 8.03786 32070 ft 461 kts 313°
2026-05-04 02:56 40.84549 8.00643 32089 ft 452 kts 298°
2026-05-04 02:56 40.85965 7.96908 32113 ft 448 kts 288°
2026-05-04 02:56 40.86811 7.92966 32083 ft 445 kts 276°
2026-05-04 02:57 40.87085 7.88973 32106 ft 442 kts 272°
2026-05-04 02:57 40.87563 7.80823 32087 ft 447 kts 273°
2026-05-04 02:58 40.88084 7.72620 32086 ft 449 kts 273°
2026-05-04 02:58 40.88629 7.64388 32079 ft 450 kts 273°
2026-05-04 02:59 40.89178 7.56167 32084 ft 449 kts 273°
2026-05-04 02:59 40.89721 7.47950 32074 ft 448 kts 273°
2026-05-04 03:00 40.90254 7.39761 32075 ft 447 kts 273°
2026-05-04 03:00 40.90781 7.31581 32079 ft 446 kts 272°
2026-05-04 03:01 40.91301 7.23412 32076 ft 446 kts 272°
2026-05-04 03:01 40.91813 7.15289 32073 ft 446 kts 272°
2026-05-04 03:02 40.92321 7.07121 32072 ft 446 kts 272°
2026-05-04 03:02 40.92824 6.98949 32068 ft 446 kts 272°
2026-05-04 03:03 40.93322 6.90765 32068 ft 446 kts 272°
2026-05-04 03:03 40.93814 6.82588 32075 ft 446 kts 272°
2026-05-04 03:04 40.94301 6.74390 32062 ft 447 kts 272°
2026-05-04 03:04 40.94782 6.66195 32060 ft 447 kts 272°
2026-05-04 03:05 40.95257 6.57997 32060 ft 447 kts 272°
2026-05-04 03:05 40.95726 6.49800 32052 ft 447 kts 272°
2026-05-04 03:06 40.96190 6.41609 32060 ft 447 kts 272°
2026-05-04 03:06 40.96644 6.33468 32044 ft 446 kts 272°
2026-05-04 03:07 40.97095 6.25285 32051 ft 446 kts 272°
2026-05-04 03:07 40.97540 6.17114 32043 ft 445 kts 271°
2026-05-04 03:08 40.97978 6.08938 32042 ft 445 kts 271°
2026-05-04 03:08 40.98412 6.00761 32040 ft 445 kts 271°
2026-05-04 03:09 40.98767 5.93956 32037 ft 445 kts 271°
2026-05-04 03:09 40.99190 5.85777 32036 ft 446 kts 271°
2026-05-04 03:10 40.99608 5.77580 32034 ft 446 kts 271°
2026-05-04 03:10 41.00019 5.69393 32041 ft 446 kts 271°
2026-05-04 03:11 41.00424 5.61210 32026 ft 446 kts 271°
2026-05-04 03:11 41.00824 5.53023 32027 ft 445 kts 271°
2026-05-04 03:12 41.01219 5.44840 32024 ft 445 kts 271°
2026-05-04 03:12 41.01610 5.36668 32028 ft 445 kts 271°
2026-05-04 03:13 41.02038 5.28485 32025 ft 445 kts 271°
2026-05-04 03:13 41.02472 5.20299 32018 ft 446 kts 271°
2026-05-04 03:14 41.02895 5.12105 32019 ft 446 kts 271°
2026-05-04 03:14 41.03309 5.03918 32018 ft 446 kts 271°
2026-05-04 03:15 41.03717 4.95721 32023 ft 446 kts 271°
2026-05-04 03:15 41.04121 4.87519 32019 ft 446 kts 271°
2026-05-04 03:16 41.04519 4.79315 32014 ft 446 kts 271°
2026-05-04 03:16 41.05287 4.71201 32010 ft 448 kts 276°
2026-05-04 03:17 41.06198 4.63039 32006 ft 447 kts 275°
2026-05-04 03:17 41.07046 4.54871 32013 ft 447 kts 275°
2026-05-04 03:18 41.07902 4.46690 31991 ft 448 kts 275°
2026-05-04 03:18 41.08779 4.38505 32005 ft 448 kts 275°
2026-05-04 03:19 41.09651 4.30329 31998 ft 448 kts 275°
2026-05-04 03:19 41.10517 4.22135 31999 ft 448 kts 275°
2026-05-04 03:20 41.11375 4.13944 31998 ft 449 kts 275°
2026-05-04 03:20 41.12228 4.05741 31992 ft 449 kts 275°
2026-05-04 03:21 41.13075 3.97536 31999 ft 449 kts 275°
2026-05-04 03:21 41.13917 3.89324 31987 ft 449 kts 275°
2026-05-04 03:22 41.14736 3.81316 31986 ft 426 kts 275°
2026-05-04 03:22 41.15125 3.77492 31976 ft 411 kts 274°
2026-05-04 03:22 41.15596 3.73772 31975 ft 409 kts 283°
2026-05-04 03:22 41.16755 3.70275 31994 ft 420 kts 297°
2026-05-04 03:23 41.18560 3.67154 32002 ft 431 kts 308°
2026-05-04 03:23 41.23438 3.62278 31991 ft 451 kts 328°
2026-05-04 03:23 41.26414 3.60825 31981 ft 463 kts 342°
2026-05-04 03:24 41.29657 3.60435 31995 ft 475 kts 359°
2026-05-04 03:24 41.32918 3.61349 31987 ft 486 kts 18°
2026-05-04 03:24 41.35889 3.63545 31985 ft 494 kts 36°
2026-05-04 03:24 41.38303 3.66722 31990 ft 497 kts 51°
2026-05-04 03:25 41.40089 3.70653 31996 ft 497 kts 66°
2026-05-04 03:25 41.41207 3.75003 31997 ft 496 kts 79°
2026-05-04 03:25 41.41548 3.79539 31977 ft 490 kts 97°
2026-05-04 03:26 41.40579 3.88444 31978 ft 487 kts 102°
2026-05-04 03:26 41.39634 3.97399 31998 ft 490 kts 100°
2026-05-04 03:27 41.38579 4.06389 31975 ft 483 kts 114°
2026-05-04 03:27 41.37081 4.10307 31997 ft 471 kts 132°
2026-05-04 03:27 41.34869 4.13351 32006 ft 458 kts 149°
2026-05-04 03:27 41.32173 4.15504 31999 ft 448 kts 162°
2026-05-04 03:28 41.29248 4.16783 32009 ft 440 kts 174°
2026-05-04 03:28 41.26234 4.17251 31976 ft 432 kts 186°
2026-05-04 03:28 41.23278 4.16889 31992 ft 424 kts 197°
2026-05-04 03:28 41.20517 4.15670 31986 ft 416 kts 210°
2026-05-04 03:29 41.18107 4.13622 31994 ft 410 kts 223°
2026-05-04 03:29 41.16174 4.10883 31991 ft 406 kts 236°
2026-05-04 03:29 41.14764 4.07653 31986 ft 405 kts 246°
2026-05-04 03:30 41.13090 4.00550 31980 ft 405 kts 262°
2026-05-04 03:30 41.13167 3.96814 32007 ft 407 kts 275°
2026-05-04 03:30 41.13585 3.93103 31983 ft 407 kts 275°
2026-05-04 03:31 41.14373 3.85662 31999 ft 407 kts 274°
2026-05-04 03:31 41.15074 3.78203 31998 ft 408 kts 274°
2026-05-04 03:32 41.16388 3.70914 31983 ft 417 kts 295°
2026-05-04 03:32 41.18150 3.67816 31992 ft 428 kts 310°
2026-05-04 03:32 41.20508 3.65332 31999 ft 439 kts 322°
2026-05-04 03:32 41.23296 3.63559 31990 ft 451 kts 335°
2026-05-04 03:33 41.26407 3.62686 31984 ft 465 kts 351°
2026-05-04 03:33 41.29671 3.62998 31988 ft 479 kts
2026-05-04 03:33 41.32770 3.64711 31984 ft 490 kts 30°
2026-05-04 03:33 41.35325 3.67734 31985 ft 497 kts 51°
2026-05-04 03:34 41.37030 3.71727 31992 ft 498 kts 71°
2026-05-04 03:34 41.37815 3.76140 31990 ft 496 kts 87°
2026-05-04 03:34 41.37669 3.80734 31983 ft 487 kts 102°
2026-05-04 03:35 41.36648 3.89624 31986 ft 491 kts 101°
2026-05-04 03:35 41.35785 3.98669 31993 ft 494 kts 100°
2026-05-04 03:35 41.35225 4.03140 31981 ft 487 kts 111°
2026-05-04 03:36 41.33798 4.07134 31991 ft 473 kts 132°
2026-05-04 03:36 41.31511 4.10145 31991 ft 456 kts 153°
2026-05-04 03:36 41.28705 4.11919 32006 ft 441 kts 170°
2026-05-04 03:36 41.25717 4.12557 31987 ft 431 kts 185°
2026-05-04 03:37 41.22767 4.12254 31996 ft 422 kts 197°
2026-05-04 03:37 41.19987 4.11136 31990 ft 415 kts 208°
2026-05-04 03:37 41.17515 4.09226 31983 ft 409 kts 221°
2026-05-04 03:37 41.15535 4.06562 31981 ft 405 kts 236°
2026-05-04 03:38 41.14199 4.03290 31993 ft 404 kts 249°
2026-05-04 03:38 41.13265 3.95983 31979 ft 407 kts 273°
2026-05-04 03:39 41.14065 3.88530 31989 ft 408 kts 275°
2026-05-04 03:39 41.14811 3.81049 31993 ft 409 kts 274°
2026-05-04 03:40 41.15578 3.73621 31980 ft 410 kts 281°
2026-05-04 03:40 41.16732 3.70131 31992 ft 420 kts 298°
2026-05-04 03:40 41.18650 3.67161 31998 ft 431 kts 313°
2026-05-04 03:40 41.21121 3.64832 32004 ft 442 kts 326°
2026-05-04 03:41 41.23997 3.63249 31989 ft 454 kts 339°
2026-05-04 03:41 41.27162 3.62622 31979 ft 468 kts 355°
2026-05-04 03:41 41.30392 3.63228 31990 ft 481 kts 14°
2026-05-04 03:41 41.33400 3.65231 31982 ft 492 kts 34°
2026-05-04 03:42 41.35801 3.68499 31982 ft 497 kts 55°
2026-05-04 03:42 41.37305 3.72635 31991 ft 498 kts 74°
2026-05-04 03:42 41.37912 3.77142 31987 ft 495 kts 91°
2026-05-04 03:42 41.37611 3.81668 31983 ft 487 kts 102°
2026-05-04 03:43 41.37084 3.86126 31989 ft 489 kts 102°
2026-05-04 03:43 41.36156 3.95131 31987 ft 493 kts 100°
2026-05-04 03:44 41.35043 4.04089 31977 ft 484 kts 115°
2026-05-04 03:44 41.33409 4.07909 31988 ft 470 kts 136°
2026-05-04 03:44 41.30982 4.10658 31995 ft 453 kts 157°
2026-05-04 03:44 41.28109 4.12169 31997 ft 439 kts 174°
2026-05-04 03:45 41.25108 4.12581 31990 ft 429 kts 187°
2026-05-04 03:45 41.22185 4.12095 31994 ft 421 kts 199°
2026-05-04 03:45 41.19453 4.10812 31989 ft 414 kts 211°
2026-05-04 03:45 41.17090 4.08773 31980 ft 409 kts 224°
2026-05-04 03:46 41.15221 4.05974 31977 ft 405 kts 239°
2026-05-04 03:46 41.14002 4.02640 31802 ft 401 kts 251°
2026-05-04 03:46 41.13333 3.99070 31316 ft 399 kts 261°
2026-05-04 03:46 41.13316 3.95407 30803 ft 399 kts 274°
2026-05-04 03:47 41.13699 3.91772 30281 ft 397 kts 274°
2026-05-04 03:47 41.14061 3.88149 29717 ft 395 kts 274°
2026-05-04 03:47 41.14415 3.84541 29167 ft 392 kts 273°
2026-05-04 03:47 41.14609 3.80968 28667 ft 386 kts 267°
2026-05-04 03:48 41.14486 3.77433 28161 ft 381 kts 264°
2026-05-04 03:48 41.14320 3.73928 27662 ft 379 kts 264°
2026-05-04 03:48 41.14169 3.70462 27161 ft 376 kts 264°
2026-05-04 03:48 41.14025 3.66999 26669 ft 374 kts 264°
2026-05-04 03:49 41.13882 3.63563 26189 ft 372 kts 264°
2026-05-04 03:49 41.13740 3.60134 25479 ft 375 kts 264°
2026-05-04 03:49 41.13590 3.56605 24246 ft 392 kts 264°
2026-05-04 03:49 41.13431 3.52910 22984 ft 408 kts 264°
2026-05-04 03:50 41.13270 3.49139 22074 ft 411 kts 264°
2026-05-04 03:50 41.13109 3.45351 21220 ft 412 kts 264°
2026-05-04 03:50 41.12948 3.41558 20488 ft 411 kts 264°
2026-05-04 03:50 41.12786 3.37784 19853 ft 408 kts 264°
2026-05-04 03:51 41.12624 3.34041 19253 ft 404 kts 265°
2026-05-04 03:51 41.12462 3.30338 18683 ft 401 kts 265°
2026-05-04 03:51 41.12299 3.26661 18059 ft 398 kts 265°
2026-05-04 03:51 41.12136 3.23008 17392 ft 396 kts 265°
2026-05-04 03:52 41.11972 3.19382 16767 ft 393 kts 265°
2026-05-04 03:52 41.11809 3.15782 16155 ft 390 kts 265°
2026-05-04 03:52 41.11646 3.12208 15568 ft 387 kts 265°
2026-05-04 03:52 41.11482 3.08653 14976 ft 385 kts 265°
2026-05-04 03:53 41.11319 3.05120 14421 ft 383 kts 265°
2026-05-04 03:53 41.11156 3.01616 13922 ft 379 kts 265°
2026-05-04 03:53 41.10994 2.98151 13382 ft 375 kts 265°
2026-05-04 03:53 41.10831 2.94711 12766 ft 373 kts 265°
2026-05-04 03:54 41.10668 2.91277 12138 ft 373 kts 265°
2026-05-04 03:54 41.10504 2.87850 11537 ft 372 kts 265°
2026-05-04 03:54 41.10340 2.84439 11101 ft 367 kts 265°
2026-05-04 03:54 41.10180 2.81120 11021 ft 353 kts 265°
2026-05-04 03:55 41.10026 2.77933 10935 ft 340 kts 265°
2026-05-04 03:55 41.09877 2.74860 10843 ft 328 kts 265°
2026-05-04 03:55 41.09732 2.71925 10714 ft 319 kts 265°
2026-05-04 03:55 41.09589 2.69026 10577 ft 310 kts 265°
2026-05-04 03:56 41.09450 2.66224 10503 ft 299 kts 265°
2026-05-04 03:56 41.09314 2.63513 10347 ft 291 kts 265°
2026-05-04 03:56 41.09182 2.60873 10165 ft 283 kts 265°
2026-05-04 03:56 41.09052 2.58301 9981 ft 276 kts 265°
2026-05-04 03:57 41.08925 2.55792 9795 ft 269 kts 265°
2026-05-04 03:57 41.08841 2.54135 9664 ft 265 kts 265°
2026-05-04 03:57 41.08678 2.50940 9434 ft 262 kts 265°
2026-05-04 03:57 41.08594 2.49311 9321 ft 262 kts 265°
2026-05-04 03:58 41.08344 2.44466 8976 ft 264 kts 264°
2026-05-04 03:58 41.08218 2.42034 8802 ft 265 kts 264°
2026-05-04 03:58 41.08091 2.39596 8627 ft 266 kts 264°
2026-05-04 03:59 41.07963 2.37153 8448 ft 266 kts 264°
2026-05-04 03:59 41.07837 2.34743 8272 ft 265 kts 264°
2026-05-04 03:59 41.07707 2.32270 8095 ft 265 kts 264°
2026-05-04 03:59 41.07581 2.29873 7921 ft 264 kts 264°
2026-05-04 04:00 41.07453 2.27457 7752 ft 263 kts 264°
2026-05-04 04:00 41.07325 2.25048 7575 ft 261 kts 264°
2026-05-04 04:00 41.07197 2.22658 7399 ft 260 kts 264°
2026-05-04 04:00 41.07071 2.20281 7229 ft 259 kts 265°
2026-05-04 04:01 41.07003 2.17902 7053 ft 258 kts 266°
2026-05-04 04:01 41.06959 2.15530 6884 ft 257 kts 266°
2026-05-04 04:01 41.06916 2.13170 6712 ft 256 kts 266°
2026-05-04 04:01 41.06872 2.10817 6544 ft 255 kts 266°
2026-05-04 04:02 41.06825 2.08466 6371 ft 255 kts 266°
2026-05-04 04:02 41.06776 2.06120 6192 ft 255 kts 266°
2026-05-04 04:02 41.06726 2.03778 6017 ft 254 kts 266°
2026-05-04 04:02 41.06675 2.01443 5853 ft 254 kts 266°
2026-05-04 04:03 41.06624 1.99097 5674 ft 254 kts 266°
2026-05-04 04:03 41.06571 1.96764 5509 ft 253 kts 266°
2026-05-04 04:03 41.06517 1.94429 5335 ft 253 kts 266°
2026-05-04 04:03 41.06464 1.92114 5189 ft 249 kts 266°
2026-05-04 04:04 41.06633 1.89890 4979 ft 241 kts 289°
2026-05-04 04:04 41.07571 1.88103 4831 ft 237 kts 315°
2026-05-04 04:04 41.08944 1.86897 4653 ft 238 kts 331°
2026-05-04 04:04 41.10456 1.85986 4526 ft 240 kts 333°
2026-05-04 04:05 41.11992 1.85093 4361 ft 242 kts 333°
2026-05-04 04:05 41.13540 1.84187 4203 ft 243 kts 334°
2026-05-04 04:05 41.15140 1.83532 4071 ft 239 kts 346°
2026-05-04 04:05 41.16762 1.83140 4009 ft 234 kts 347°
2026-05-04 04:06 41.18321 1.82772 3970 ft 222 kts 347°
2026-05-04 04:06 41.19868 1.82655 3970 ft 223 kts 12°
2026-05-04 04:06 41.21206 1.83605 3822 ft 222 kts 46°
2026-05-04 04:06 41.22003 1.85327 3549 ft 216 kts 66°
2026-05-04 04:07 41.22620 1.87140 3240 ft 214 kts 66°
2026-05-04 04:07 41.23232 1.88926 2968 ft 211 kts 66°
2026-05-04 04:07 41.23831 1.90678 2702 ft 207 kts 66°
2026-05-04 04:07 41.24421 1.92405 2426 ft 204 kts 65°
2026-05-04 04:08 41.25001 1.94101 2152 ft 200 kts 65°
2026-05-04 04:08 41.25574 1.95773 1882 ft 196 kts 65°
2026-05-04 04:08 41.26121 1.97371 1663 ft 182 kts 65°
2026-05-04 04:08 41.26626 1.98849 1380 ft 169 kts 65°
2026-05-04 04:09 41.27090 2.00204 1175 ft 155 kts 65°
2026-05-04 04:09 41.27538 2.01512 972 ft 156 kts 65°
2026-05-04 04:09 41.27985 2.02819 756 ft 154 kts 65°
2026-05-04 04:09 41.28425 2.04108 548 ft 153 kts 65°
2026-05-04 04:10 41.28857 2.05370 335 ft 151 kts 64°
2026-05-04 04:10 41.29295 2.06641 150 ft 151 kts 64°
2026-05-04 04:10 41.29730 2.07910 29 ft 144 kts 64°
2026-05-04 04:10 41.30083 2.08940 27 ft 91 kts 65°
2026-05-04 04:11 41.30252 2.09432 26 ft 32 kts 65°
2026-05-04 04:11 41.30343 2.09697 24 ft 24 kts 65°
2026-05-04 04:11 41.30357 2.09787 25 ft 9 kts 111°
2026-05-04 04:11 41.30303 2.09833 25 ft 10 kts 156°
2026-05-04 04:12 41.30240 2.09870 26 ft 5 kts 156°
2026-05-04 04:12 41.30212 2.09863 24 ft 6 kts 215°
2026-05-04 04:12 41.30169 2.09746 23 ft 24 kts 246°
2026-05-04 04:12 41.30099 2.09534 24 ft 25 kts 245°
2026-05-04 04:13 41.30026 2.09323 24 ft 25 kts 245°
2026-05-04 04:13 41.29954 2.09110 25 ft 25 kts 246°
2026-05-04 04:13 41.29880 2.08897 29 ft 25 kts 245°
2026-05-04 04:13 41.29807 2.08685 24 ft 25 kts 245°
2026-05-04 04:14 41.29734 2.08473 24 ft 25 kts 245°
2026-05-04 04:14 41.29662 2.08261 24 ft 25 kts 245°
2026-05-04 04:14 41.29590 2.08048 24 ft 25 kts 245°
2026-05-04 04:14 41.29516 2.07837 26 ft 25 kts 245°
2026-05-04 04:15 41.29443 2.07625 26 ft 25 kts 246°
2026-05-04 04:15 41.29384 2.07532 23 ft 9 kts 177°
2026-05-04 04:15 41.29321 2.07568 24 ft 10 kts 156°
2026-05-04 04:15 41.29283 2.07590 25 ft 5 kts 156°
2026-05-04 04:16 41.29246 2.07595 23 ft 5 kts 193°
2026-05-04 04:16 41.29219 2.07560 28 ft 6 kts 228°
2026-05-04 04:16 41.29193 2.07520 26 ft 6 kts 229°
2026-05-04 04:16 41.29173 2.07489 29 ft 2 kts 229°
2026-05-04 04:17 41.29171 2.07485 27 ft 0 kts 229°